STARLINK-31879, 59937

Orbit data source: Space-Track

STARLINK-31879, 59937 is a payload satellite owned by SpaceX/Seattle (US) in LEO that was launched on Sat, 01 Jun 2024 UTC via an FALCON 9 launch vehicle from the Air Force Eastern Test Range (AFETR). Payload-class satellites include a variety of spacecraft equipped with specific instruments for various scientific and technological missions. These include communications satellites like Starlink; space stations such as the ISS; scientific satellites like the Hubble; Earth observation satellites from companies like Planet Labs, Umbra, and HawkEye 360; GPS; miniature CubeSats for education and research; and military/defense satellites.

Loading next visibility...
Identifier
59937, 2024-106R
Orbit
LEO
Country
Flag of USUS
Related business
Manufacturer
SpaceX/Seattle
Mission
Operational Commercial Communications
Bus & Motor
STARLINK V2M, Unknown motor
Mass
730 kg wet, ~700 kg dry
Launch date (UTC)
2024-06-01 (2 years ago)
Launch vehicle
FALCON 9
Launch site
Air Force Eastern Test Range (AFETR)
Object type
Payload
Rocket body
Debris
Shape & HBR
Box + 2 Pan, 17.7 m
Radar Cross Section
33.884 m², Large (>1 m²)

Expand to show TLE details & history
Last TLE update: 20 hours ago

TLE from 20 hours ago
0 STARLINK-31879
1 59937U 24106R   26033.41979375  .00001549  00000-0  65786-4 0  9990
2 59937  42.9960 172.1414 0000877 268.8736  91.2015 15.27585865 95179
Epoch: 2026-02-02T10:04Z
TLE epoch observation values (Epoch: 2026-02-02T10:04:30.179Z)
Latitude
-0°
Longitude
-111.5997°
Altitude
482.819 km
Speed
7.626 km/s
True Right ascension
11h 28m 33s
True Declination
0° 00' 00"
Sunlit
Object was in full shadow at epoch
Visualization orbit readout
Latitude
Unknown
Longitude
Unknown
Altitude
Unknown
Speed
Unknown
Apparent Right ascension
Unknown
Apparent Declination
Unknown
Sunlit
N/A
Visualization observer readout
Local Sidereal Time
07:48:18
Azimuth
Unknown
Elevation
Unknown
Doppler factor
Unknown
Orbital elements
Apogee altitude
485.579 km
Perigee altitude
484.375 km
Semi-major axis
6,863.114 km
Eccentricity
0.00009
Inclination
42.996°
RAAN
172.1414°
Arg. of periapsis
268.8736°
True anomaly
91.21155°
Mean anomaly
91.2015°
Eccentric anomaly
91.20652°
Mean motion
3.81734 °/min
Orbital period
94.31 mins
BSTAR
0.000065786
Loading maneuver chart data...
Computing Atmospheric mass density...
Loading historical data...
Loading historical data...
Loading historical data...
Loading historical data...
Loading historical data...
Loading historical data...
Loading historical data...

Documentation

Showing up to 5 results
|